Regional Weather Roundup
Issued by NWS State College, PA

Home | Current Version | Previous Version | Text Only | Print | Product List | Glossary On
Versions: 1 2 3 4 5 6 7 8 9 10 11 12 13 14 15 16 17 18 19 20 21 22 23 24 25 26 27 28 29 30 31 32 33 34 35 36 37 38 39 40 41 42 43 44 45 46 47 48 49 50
000
ASUS41 KCTP 152210
RWRCTP

REGIONAL WEATHER ROUNDUP
NATIONAL WEATHER SERVICE STATE COLLEGE PA
600 PM EDT TUE APR 15 2014

Note: "fair" indicates few or no clouds below 12,000 feet with no
significant weather and/or obstructions to visibility.

* = STATION THAT DOES NOT REPORT PRECIPITATION /E.G. RAIN...SNOW...ETC/
    THUNDER OR FOG.

PAZ002>004-007>009-013>016-020>023-029>032-152300-
WESTERN PENNSYLVANIA

CITY           SKY/WX    TMP DP  RH WIND       PRES   REMARKS
ERIE           CLOUDY    30  19  63 W13G23    30.02R
MEADVILLE      NOT AVBL
FRANKLIN*      CLOUDY    27  19  74 W12G20    29.98R
NEW CASTLE     PTSUNNY   29  21  71 W14       30.03R
BEAVER COUNTY  CLOUDY    30  23  74 W13G21    30.00
BUTLER*        CLOUDY    28  21  74 W12G20    30.00R
PITTSBURGH INT FLURRIES  31  24  75 NW18      29.98R
PITTSBURGH     CLOUDY    33  24  69 NW13G22   29.97R
INDIANA*       CLOUDY    30  27  86 NW14G20   29.93S
LATROBE        LGT RAIN  32  30  93 NW16G28   29.98R
WASHINGTON CO* CLOUDY    32  23  69 W10G20    30.02R
$$

PAZ004>006-010>012-017>019-024>028-033>037-041-042-045-046-049>053-152300-
CENTRAL PENNSYLVANIA

CITY           SKY/WX    TMP DP  RH WIND       PRES   REMARKS
BRADFORD       FLURRIES  26  18  71 NW18G28   29.85R WCI  13
DUBOIS         CLOUDY    30  21  69 W18G33    29.88R
CLEARFIELD     FLURRIES  31  24  75 NW17G29   29.88R
JOHNSTOWN      FLURRIES  28  24  85 NW23G41   29.84R WCI  14
ALTOONA        CLOUDY    34  29  82 NW15G24   29.83F
STATE COLLEGE  LGT SNOW  36  25  64 NW14G21   29.85R FOG
WILLIAMSPORT   LGT RAIN  39  34  82 NW12      29.81R
SELINSGROVE    LGT RAIN  41  36  82 NW9       29.81R
FT INDIANTOWN  DRIZZLE   41  39  93 NW13G24   29.78R
CAPITAL CITY   LGT RAIN  41  35  79 W10       29.83R
HARRISBURG     LGT RAIN  42  35  76 NW14G23   29.81R
YORK           RAIN      41  35  79 NW9       29.82R
$$

PAZ038>040-043-044-047-048-054-055-060>062-067>071-152300-
EASTERN PENNSYLVANIA

CITY           SKY/WX    TMP DP  RH WIND       PRES   REMARKS
SCRANTON       LGT RAIN  37  33  85 NW13      29.77R FOG
MOUNT POCONO   LGT RAIN  36  32  85 NW16G33   29.66S FOG
ALLENTOWN      LGT RAIN  45  39  79 NW13G18   29.73R
QUAKERTOWN*    CLOUDY    45  41  87 NW12G20   29.73R
READING        LGT RAIN  45  41  86 NW10      29.75R FOG
LANCASTER      LGT RAIN  43  36  76 NW20G30   29.75R
COATESVILLE    NOT AVBL
POTTSTOWN      RAIN      45  43  93 NW8       29.73R FOG
BLUE BELL      CLOUDY    48  45  87 NW13G22   29.70R
DOYLESTOWN     LGT RAIN  45  41  86 NW16G30   29.69R
WILLOW GROVE   NOT AVBL
NORTH PHILA    LGT RAIN  52  47  83 N15G22    29.70R
PHILADELPHIA   RAIN      50  44  80 NW16G29   29.70R
$$



USA.gov is the U.S. government's official web portal to all federal, state and local government web resources and services.